SCP
0 0 0 0 0 0 0 0 0 0 0 0 0 0 0 0 0 0 0 0 0 0 0 0 0 0 0 0 0 0 0 0 0 0 0 0 0 0 0 0 0 0 0
0 0 0 0 0 0 0 0 0 0 0 0 0 0 0 0 0 0 0 0 0 0 0 0 0 0 0 0 0 0 0 0 0 0 0 0 0 0 0 0 0 0 0
0 0 0 0 0 0 0 0 0 0 0 0 0 0 0 0 0 0 0 0 0 0 0 0 0 0 0 0 0 0 0 0 0 0 0 0 0 0 0 0 0 0 0
0 0 0 0 0 0 0 0 0 0 0 0 0 0 0 0 0 0 0 0 0 0 0 0 0 0 0 0 0 0 0 0 0 0 0 0 0 0 0 0 0 0 0
0 0 0 0 0 0 0 0 0 0 0 0 0 0 0 0 0 0 0 0 0 0 0 0 0 0 0 0 0 0 0 0 0 0 0 0 0 0 0 0 0 0 0
0 0 0 0 0 0 0 0 0 0 0 0 0 0 0 0 0 0 0 0 0 0 0 0 0 0 0 0 0 0 0 0 0 0 0 0 0 0 0 0 0 0 0
0 0 0 0 0 0 0 0 0 0 0 0 0 0 0 0 0 0 0 0 0 0 0 0 0 0 0 0 0 0 0 0 0 0 0 0 0 0 0 0 0 0 0
0 0 0 0 0 0 0 0 0 0 0 0 0 0 0 0 0 0 0 0 0 0 0 0 0 0 0 0 0 0 0 0 0 0 0 0 0 0 0 0 0 0 0
0 0 0 0 0 0 0 0 0 0 0 0 0 0 0 0 0 0 0 0 0 0 0 0 0 0 0 0 0 0 0 0 0 0 0 0 0 0 0 0 0 0 0
0 0 0 0 0 0 0 0 0 0 0 0 0 0 0 0 0 0 0 0 0 0 0 0 0 0 0 0 0 0 0 0 0 0 0 0 0 0 0 0 0 0 0
0 0 0 0 0 0 0 0 0 0 0 0 0 0 0 0 0 0 0 0 0 0 0 0 0 0 0 0 0 0 0 0 0 0 0 0 0 0 0 0 0 0 0
0 0 0 0 0 0 0 0 0 0 0 0 0 0 0 0 0 0 0 0 0 0 0 0 0 0 0 0 0 0 0 0 0 0 0 0 0 0 0 0 0 0 0
0 0 0 0 0 0 0 0 0 0 0 0 0 0 0 0 0 0 0 0 0 0 0 0 0 0 0 0 0 0 0 0 0 0 0 0 0 0 0 0 0 0 0
0 0 0 0 0 0 0 0 0 0 0 0 0 0 0 0 0 0 0 0 0 0 0 0 0 0 0 0 0 0 0 0 0 0 0 0 0 0 0 0 0 0 0
0 0 0 0 0 0 0 0 0 0 0 0 0 0 0 0 0 0 0 0 0 0 0 0 0 0 0 0 0 0 0 0 0 0 0 0 0 0 0 0 0 0 0
0 0 0 0 0 0 0 0 0 0 0 0 0 0 0 0 0 0 0 0 0 0 0 0 0 0 0 0 0 0 0 0 0 0 0 0 0 0 0 0 0 0 0
0 0 0 0 0 0 0 0 0 0 0 0 0 0 0 0 0 0 0 0 0 0 0 0 0 0 0 0 0 0 0 0 0 0 0 0 0 0 0 0 0 0 0
0 0 0 0 0 0 0 0 0 0 0 0 0 0 0 0 0 0 0 0 0 0 0 0 0 0 0 0 0 0 0 0 0 0 0 0 0 0 0 0 0 0 0
0 0 0 0 0 0 0 0 0 0 0 0 0 0 0 0 0 0 0 0 0 0 0 0 0 0 0 0 0 0 0 0 0 0 0 0 0 0 0 0 0 0 0
0 0 0 0 0 0 0 0 0 0 0 0 0 0 0 0 0 0 0 0 0 0 0 0 0 0 0 0 0 0 0 0 0 0 0 0 0 0 0 0 0 0 0
0 0 0 0 0 0 0 0 0 0 0 0 0 0 0 0 0 0 0 0 0 0 0 0 0 0 0 0 0 0 0 0 -0 0 0 0 0 0 0 0 0 0 0
0 0 0 0 0 0 0 0 0 0 0 0 0 0 0 0 0 0 0 0 0 0 0 0 0 0 0 0 0 0 0 0 -0 0 0 0 0 0 0 0 0 0 0
0 0 0 0 0 0 0 0 0 0 0 0 0 0 0 0 0 0 0 0 0 0 0 0 0 0 0 0 0 0 0 0 0 0 0 0 0 0 0 0 0 0 0
0 0 0 0 0 0 0 0 0 0 0 0 0 0 0 0 0 0 0 0 0 0 0 0 0 0 0 0 0 0 0 0 0 0 0 0 0 0 0 0 0 0 0
0 0 0 0 0 0 0 0 0 0 0 0 0 0 0 0 0 0 0 0 0 0 0 0 0 0 0 0 0 0 0 0 0 0 0 0 0 0 0 0 0 0 0
0 0 0 0 0 0 0 0 0 0 0 0 0 0 0 0 0 0 0 0 0 0 0 0 0 0 0 0 0 0 0 0 0 0 0 0 0 0 0 0 0 0 0
Wind_Speed
1 2 1 2 2 1 1 1 1 1 2 2 2 2 3 2 1 1 1 1 1 1 2 3 4 4 4 4 5 5 5 5 4 4 4 4 4 4 4 4 4 4 4
2 2 2 2 2 2 2 2 2 2 2 2 2 3 3 3 2 2 2 2 1 1 2 3 3 3 3 4 5 5 5 5 4 4 4 3 3 4 4 4 3 3 3
2 2 2 2 2 3 3 2 2 2 2 2 3 3 3 3 3 3 3 2 2 2 2 3 3 3 3 3 4 5 5 4 4 4 4 3 3 3 3 3 4 4 3
3 2 2 2 2 3 3 2 2 2 2 2 3 3 3 3 4 4 3 3 3 3 3 3 3 3 4 4 4 4 4 4 4 4 4 4 4 3 3 4 4 4 4
3 3 2 2 3 3 3 3 3 2 2 3 3 3 3 3 4 4 5 4 3 3 3 3 3 3 3 4 4 5 5 5 5 4 3 3 4 4 4 4 4 4 5
3 3 3 3 3 3 3 3 3 3 3 3 3 3 4 4 4 5 5 4 4 4 4 4 4 3 4 4 4 5 6 6 6 5 4 4 4 4 5 5 5 5 5
4 3 3 3 3 3 4 4 3 3 2 2 2 3 4 5 5 4 4 4 4 4 4 4 3 3 3 4 4 5 5 6 7 6 6 6 6 5 5 7 6 6 6
4 4 4 3 4 3 4 4 4 3 2 2 2 2 3 4 3 3 4 4 4 4 4 5 5 4 3 3 3 4 5 6 7 7 7 7 7 6 6 5 6 6 6
4 4 5 4 4 4 4 4 4 5 4 4 3 3 3 3 1 4 5 4 4 4 4 4 5 5 4 3 3 3 4 5 6 7 8 8 8 8 7 6 6 6 7
4 4 5 5 5 4 4 4 5 5 5 5 4 4 5 3 3 3 4 4 4 4 5 4 4 5 4 4 3 3 3 4 6 7 8 9 9 9 8 8 7 7 6
4 4 5 5 5 5 5 5 5 6 5 6 5 4 5 5 6 5 5 5 4 4 4 4 4 4 4 4 3 2 2 4 5 6 7 8 8 9 8 8 8 8 7
3 4 5 5 5 5 6 6 5 7 6 7 6 5 5 5 5 5 5 5 5 4 5 4 4 4 3 3 3 2 2 3 5 6 7 6 6 7 7 7 7 7 7
4 5 5 5 5 5 6 6 6 6 7 7 7 6 6 6 6 5 5 5 5 4 4 4 4 3 3 3 3 3 3 4 4 5 7 7 6 5 5 5 6 6 6
5 5 6 6 6 6 6 6 6 6 6 7 7 7 6 6 6 6 5 5 5 4 5 5 3 4 3 3 3 4 4 4 5 6 6 6 5 5 4 5 5 6 6
5 6 6 6 6 6 6 6 6 6 6 6 7 7 6 6 6 6 6 6 6 6 6 5 3 4 3 3 3 4 5 5 6 6 6 6 5 5 5 4 5 5 6
6 6 6 6 6 6 6 6 6 6 6 6 5 7 7 5 6 6 5 6 6 7 6 4 4 4 4 3 4 5 5 5 6 7 6 5 5 5 5 5 5 5 5
6 6 6 6 6 6 6 6 7 6 6 7 6 6 6 6 6 5 5 6 6 6 6 5 3 4 5 5 4 5 4 4 4 6 7 6 6 6 6 6 5 5 6
6 7 7 6 6 6 7 7 7 6 6 7 7 6 7 5 6 5 5 6 6 7 6 6 4 4 5 5 5 5 4 4 5 5 7 7 7 7 7 7 6 6 6
6 6 6 6 6 7 7 7 7 6 6 7 7 7 7 6 6 5 5 6 5 5 5 5 5 4 4 4 4 5 5 5 4 5 6 7 7 8 8 8 7 7 6
6 6 6 7 7 7 7 7 6 6 6 6 6 6 6 6 6 6 5 6 6 6 6 5 5 4 4 4 4 4 4 4 4 4 5 6 6 8 8 8 7 7 7
6 6 6 6 6 6 6 7 6 6 6 6 6 6 6 7 7 7 5 5 6 5 5 6 5 5 4 4 5 4 5 4 4 4 4 5 5 5 5 7 7 7 7
5 5 6 6 6 5 7 9 8 6 6 6 6 7 7 7 7 8 9 9 8 7 7 6 6 6 6 5 5 4 4 4 4 3 4 5 4 5 5 5 6 7 7
5 6 6 6 7 7 9 9 10 7 6 6 7 7 5 5 7 6 7 8 8 9 9 7 8 8 7 6 6 6 6 6 5 3 4 5 5 6 5 5 8 8 9
5 6 6 6 7 7 9 9 10 8 6 6 7 7 7 6 6 6 6 7 7 7 7 7 8 8 7 6 7 7 7 6 5 4 4 5 5 5 4 5 9 10 10
6 6 6 6 7 7 8 9 9 6 6 7 7 7 7 7 8 8 7 7 7 6 7 8 9 8 8 8 7 5 5 5 5 4 4 4 3 4 5 5 6 9 10
6 6 6 6 7 7 7 9 9 5 6 5 5 6 8 8 8 8 7 6 7 6 5 5 6 7 7 7 8 8 6 6 5 4 4 4 3 2 3 4 4 5 6
Wind_Direction
356 346 327 334 329 318 304 290 254 242 230 214 211 205 199 203 222 213 138 75 321 220 174 166 167 163 163 168 159 160 154 150 145 148 145 140 145 149 144 138 129 115 114
336 328 319 316 315 303 292 278 267 253 244 236 223 219 221 214 223 226 220 175 193 262 227 199 191 184 179 180 175 169 166 167 163 158 156 152 153 157 156 155 147 138 127
327 318 306 303 305 305 285 269 257 249 243 240 234 232 234 233 225 227 227 228 204 198 219 220 210 206 198 188 180 176 174 173 173 172 177 179 170 164 171 174 173 163 155
322 308 300 302 302 290 274 264 252 250 239 238 243 239 234 235 235 231 229 226 227 218 201 206 228 228 213 204 197 193 188 176 173 177 187 189 181 178 182 194 192 193 188
317 307 296 301 291 281 270 264 253 251 252 246 250 254 247 234 232 230 228 221 226 232 224 194 209 232 232 219 218 214 205 192 190 191 191 192 201 205 207 207 207 205 204
314 310 296 292 288 274 266 263 268 257 252 257 255 257 255 243 232 228 228 219 218 226 230 225 215 213 222 225 234 236 224 209 204 206 209 211 211 215 218 214 213 214 214
312 300 295 288 282 268 267 269 265 258 250 252 257 256 250 239 231 226 226 223 219 224 230 230 228 228 219 215 230 244 240 222 210 211 217 220 221 223 224 220 218 219 221
311 303 297 291 281 276 261 260 261 260 258 234 253 250 240 219 215 229 230 226 225 221 226 231 229 228 234 227 222 239 246 235 224 219 220 223 225 228 228 223 222 220 218
299 298 294 290 282 278 265 259 255 253 255 241 235 242 244 239 236 215 227 227 224 225 229 234 236 230 234 242 227 222 239 240 231 228 227 229 232 233 230 221 223 227 223
291 292 292 288 281 273 269 259 255 259 255 246 239 246 258 264 252 234 218 224 229 236 237 238 241 236 229 234 238 240 234 242 239 236 235 236 236 234 231 226 228 229 231
285 289 287 284 280 276 271 262 255 254 254 251 243 245 251 249 244 245 235 225 234 235 239 240 240 236 233 230 231 235 242 246 250 245 242 240 239 238 238 233 233 234 233
284 287 288 286 283 280 274 269 260 251 253 255 250 241 243 242 235 242 244 232 236 238 239 240 236 236 233 229 232 238 246 249 256 252 246 245 246 250 250 241 234 235 236
286 288 291 286 281 280 278 273 263 256 252 253 251 246 246 250 247 249 253 248 241 242 236 233 232 235 231 225 227 228 237 244 254 258 252 247 253 260 252 246 242 238 237
286 287 285 283 283 284 281 277 265 256 252 250 252 251 249 250 250 245 244 249 243 238 233 229 222 223 230 232 248 242 237 238 246 253 257 259 256 256 250 245 248 246 242
292 288 283 282 284 283 279 278 270 265 259 254 252 253 253 252 249 248 241 237 240 236 234 225 217 221 233 238 240 240 249 245 244 245 254 260 262 253 245 243 245 250 246
289 288 286 283 283 281 277 273 272 267 266 264 258 252 251 252 251 247 241 240 242 241 240 230 231 231 233 241 237 239 246 260 248 245 248 250 254 248 242 243 242 250 250
291 288 286 285 283 282 280 274 271 266 263 265 261 257 257 256 252 250 245 240 240 240 243 244 236 229 227 233 235 237 241 246 247 244 248 248 244 248 244 242 241 244 247
289 288 285 283 284 282 280 274 272 269 263 262 263 262 261 259 255 258 255 247 244 239 238 242 239 233 233 229 234 237 243 246 251 248 244 245 245 247 247 241 237 236 238
288 286 284 282 281 281 277 273 271 268 265 263 263 262 261 257 256 256 256 256 249 243 237 236 243 236 236 232 234 238 243 245 252 253 240 242 246 248 249 241 235 236 236
285 285 284 284 281 278 276 274 271 267 263 262 262 262 261 258 258 261 255 256 249 245 238 232 236 236 231 229 227 233 244 245 252 256 247 250 250 248 246 241 238 236 233
287 286 284 284 283 279 274 277 274 267 263 264 263 261 262 264 266 264 264 260 248 242 240 232 231 234 232 221 225 231 242 250 252 244 243 243 244 243 238 236 234 232 232
289 287 284 283 284 282 290 289 287 273 266 263 263 262 263 260 264 267 270 271 261 243 239 236 233 232 233 232 234 233 240 244 248 221 239 251 245 246 244 237 237 235 236
286 284 284 285 283 285 291 292 293 285 272 268 266 265 265 266 267 264 266 266 267 263 253 248 242 236 234 230 231 234 236 242 252 246 240 250 243 247 249 243 235 232 235
282 280 281 282 284 285 291 293 294 285 277 271 267 264 263 264 264 267 263 262 260 258 255 252 256 253 245 236 231 235 241 252 267 253 239 253 245 250 252 248 231 230 234
281 281 281 280 281 286 292 294 295 282 272 270 266 264 264 263 265 265 261 261 265 270 266 261 265 267 262 254 245 234 231 236 252 248 232 244 252 268 258 248 235 225 231
279 282 281 280 280 282 290 293 292 281 276 275 272 266 262 266 265 262 258 256 259 264 269 266 262 263 257 250 247 235 230 235 245 248 230 233 245 257 259 242 233 227 230